Regional Weather Roundup
Issued by NWS

Home | Current Version | Previous Version | Graphics & Text | Print | Product List | Glossary On
Versions: 1 2 3 4 5 6 7 8 9 10 11 12 13 14 15 16 17 18 19 20 21 22 23 24 25 26 27
000
ASUS45 KPSR 300110
RWRAZ

ARIZONA HOURLY REGIONAL WEATHER ROUNDUP
NATIONAL WEATHER SERVICE PHOENIX AZ
600 PM MST SUN MAY 29 2016

NOTE: FAIR INDICATES FEW OR NO CLOUDS BELOW 12,000 FEET WITH NO
SIGNIFICANT WEATHER AND/OR OBSTRUCTIONS TO VISIBILITY.

AZZ001>003-036-300200-
NORTHWEST ARIZONA

CITY           SKY/WX    TMP DP  RH WIND       PRES   REMARKS
KINGMAN        SUNNY     83  20   9 SW18G25   29.93F
$$

AZZ004>008-015-016-018-300200-
NORTH CENTRAL ARIZONA

CITY           SKY/WX    TMP DP  RH WIND       PRES   REMARKS
GRAND CANYON   SUNNY     74  15  10 SW12G17   30.11F
WILLIAMS       SUNNY     70   9   9 S13G23    30.20S
PRESCOTT       SUNNY     77  19  11 S14       30.03F
FLAGSTAFF      SUNNY     68  10  10 SW14      30.15S
PAYSON         SUNNY     79  10   7 S13       30.07S
PAGE           SUNNY     86  11   6 S9        29.91F
$$

AZZ009>014-017-300200-
NORTHEAST ARIZONA

CITY           SKY/WX    TMP DP  RH WIND       PRES   REMARKS
WINSLOW        SUNNY     82  15   8 S15       30.00S
SAINT JOHNS    SUNNY     79  11   7 SW14G23   30.03S
WINDOW ROCK    SUNNY     76  10   8 S10       30.11S
SHOW LOW       SUNNY     72  10   9 SW18G24   30.12F
$$

AZZ023-300200-
GREATER PHOENIX AREA

CITY           SKY/WX    TMP DP  RH WIND       PRES   REMARKS
PHOENIX        SUNNY     96  17   5 S13G20    29.76F
BUCKEYE        SUNNY     93  19   7 SW9       29.81S
GLENDALE       SUNNY     97  14   5 SW6       29.80S
LUKE AFB       SUNNY     94  18   6 SW12      29.77F
DEER VALLEY    SUNNY     92  16   6 S6G15     29.80F
SCOTTSDALE     SUNNY     95  14   5 S10       29.81F
MESA-FALCON    SUNNY    N/A N/A N/A SW14      29.78F
CHANDLER       SUNNY     95  16   5 SW12      29.79F
$$

AZZ027-028-300200-
SOUTHWEST MARICOPA COUNTY AND PINAL COUNTY

CITY           SKY/WX    TMP DP  RH WIND       PRES   REMARKS
CASA GRANDE    SUNNY     95  30  10 SW15G21   29.82S
GILA BEND      FAIR      94  15   5 SW15      29.78S
$$

AZZ503-504-507>509-300200-
SOUTHEAST ARIZONA

CITY           SKY/WX    TMP DP  RH WIND       PRES   REMARKS
TUCSON         SUNNY     93  12   5 S15G21    29.89F
DAVIS-MONTHAN  SUNNY     92  12   5 SW13G22   29.88S
NOGALES        SUNNY     85  33  15 S16       29.98F
SIERRA VISTA   SUNNY     82  27  13 SW16G25   30.04S
DOUGLAS        PTSUNNY   87  33  14 SW20G32   29.99S
SAFFORD        SUNNY     92  14   5 VRB6      29.86F
$$

AZZ020-021-025-026-031-300200-
SOUTHWEST ARIZONA

CITY           SKY/WX    TMP DP  RH WIND       PRES   REMARKS
YUMA           SUNNY     91  18   7 SE8       29.79S
$$

CAZ031-033-041-043-047-048-061-300200-
SOUTHERN CALIFORNIA

CITY           SKY/WX    TMP DP  RH WIND       PRES   REMARKS
DOWNTOWN L.A.  SUNNY     67  54  63 W5        29.96S
L.A. AIRPORT   MOSUNNY   64  54  69 W15       29.97S
SAN DIEGO      CLOUDY    66  54  65 NW7       29.99S
BURBANK        SUNNY     67  52  58 S10       29.94S
ONTARIO        MOSUNNY   72  51  47 SW10      29.94S
RIVERSIDE      MOSUNNY   74  52  46 W12       29.93F
PALM SPRINGS   MOSUNNY   88  51  28 NW15      29.81F
EL CENTRO NAS  SUNNY     91  37  15 SE6       29.78F
IMPERIAL       SUNNY     92  44  19 S3        29.76F
BLYTHE         SUNNY     92  33  12 S14       29.78F
NEEDLES        SUNNY     94  24   8 SW14      29.78F
$$

NVZ020-UTZ003-300200-
SOUTHERN NEVADA-UTAH

CITY           SKY/WX    TMP DP  RH WIND       PRES   REMARKS
LAS VEGAS      MOSUNNY   91  20   7 W3        29.79F
SALT LAKE CITY CLOUDY    71  42  35 SE21G28   30.01R
$$

NMZ009-TXZ055-300200-
NEW MEXICO-WEST TEXAS

CITY           SKY/WX    TMP DP  RH WIND       PRES   REMARKS
ALBUQUERQUE    MOSUNNY   83  16   8 S16       30.01F
EL PASO        MOSUNNY   88  32  13 S15       29.97R
$$


........................KEY........................
SKY/WX - SKY CONDITION/WEATHER
TMP    - TEMPERATURE IN FAHRENHEIT
DP     - DEW POINT IN FAHRENHEIT
RH     - RELATIVE HUMIDITY IN PERCENT
WIND   - DIRECTION AND SPEED IN MILES PER HOUR (MPH)
VRB    - VARIABLE WIND DIRECTION
PRES   - MEAN SEA LEVEL PRESSURE IN INCHES OF MERCURY
         F - FALLING PRESSURE   R - RISING PRESSURE
         S - STEADY PRESSURE
VSB    - VISIBILITY IN MILES
HX     - HEAT INDEX IN FAHRENHEIT
WCI    - WIND CHILL INDEX IN FAHRENHEIT
TC     - TEMPERATURE IN CELSIUS WHICH IS ALSO KNOWN AS
         TEMPERATURE IN CENTIGRADE
AFB    - AIR FORCE BASE
         LUKE AFB IS LUKE AIR FORCE BASE
         DAVIS-MONTHAN IS DAVIS-MONTHAN AIR FORCE BASE
NAS    - NAVAL AIR STATION
         EL CENTRO NAS IS EL CENTRO NAVAL AIR STATION
N/A    - NOT AVAILABLE





USA.gov is the U.S. government's official web portal to all federal, state and local government web resources and services.